Stations météo

réclame
Mon MeteoGroup
Leeuwarden, Pays-Bas (6270): Température de l'air & dewpoint: 15.10.2017 19:00:00 - 21.10.2017 19:00:00 (CEST)Leeuwarden, Pays-Bas (6270): Température de l'air 5cm: 15.10.2017 19:00:00 - 21.10.2017 19:00:00 (CEST)Leeuwarden, Pays-Bas (6270): Vitesse du vent & gusts: 15.10.2017 19:00:00 - 21.10.2017 19:00:00 (CEST)Leeuwarden, Pays-Bas (6270): Direction du vent: 15.10.2017 19:00:00 - 21.10.2017 19:00:00 (CEST)Leeuwarden, Pays-Bas (6270): reduced air pressure: 15.10.2017 19:00:00 - 21.10.2017 19:00:00 (CEST)Leeuwarden, Pays-Bas (6270): visibility: 15.10.2017 19:00:00 - 21.10.2017 19:00:00 (CEST)Leeuwarden, Pays-Bas (6270): Quantités de précipitations: 15.10.2017 19:00:00 - 21.10.2017 19:00:00 (CEST)
Date & Time tt [°C] td [°C] tt 5cm [°C] ff [km/h] ff [knt] fx [km/h] fx [knt] dd ppp [hPa] vv [km] rr [mm]
21.10.2017 19:00:00 12,1 9,6 11,3 18 10 40 21 S 1006,8 10 0,0
21.10.2017 18:00:00 13,1 10,2 12,4 21 11 43 23 SSW 1006,9 10 1,5
21.10.2017 17:00:00 14,8 10,9 14,4 21 11 32 18 SSW 1006,9 10 0,0
21.10.2017 16:00:00 15,9 11,0 16,2 22 12 40 21 SW 1006,7 10 0,0
21.10.2017 15:00:00 15,4 12,3 15,4 22 12 43 23 SSW 1006,8 10 0,0
21.10.2017 14:00:00 14,9 13,3 14,2 22 12 36 19 SSW 1006,7 10 0,0
21.10.2017 13:00:00 13,9 12,9 13,4 21 11 36 19 S 1006,9 10 0,0
21.10.2017 12:00:00 12,1 11,8 11,9 21 11 32 18 S 1007,3 10 0,0
21.10.2017 11:00:00 11,2 10,8 11,1 22 12 36 19 S 1007,2 10 1,0
21.10.2017 10:00:00 11,6 9,8 11,5 24 13 32 18 S 1007,3 9 0,0
21.10.2017 09:00:00 11,2 9,4 10,7 21 11 32 18 SSE 1007,3 10 0,0
21.10.2017 08:00:00 10,8 9,2 10,5 18 10 - - SSE 1007,8 10 0,0
21.10.2017 07:00:00 10,6 9,0 10,3 16 9 29 16 SSE 1008,4 10 0,0
21.10.2017 06:00:00 10,4 9,2 10,1 16 9 25 14 SSE 1008,4 10 0,0
21.10.2017 05:00:00 10,5 9,8 10,1 13 7 - - SSE 1009,0 10 0,0
21.10.2017 04:00:00 10,9 9,7 9,7 11 6 18 10 S 1009,4 10 0,0
21.10.2017 03:00:00 11,8 9,8 11,0 13 7 22 12 SW 1009,5 10 0,0
21.10.2017 02:00:00 12,5 11,9 12,3 15 8 - - SW 1009,6 10 0,0
21.10.2017 01:00:00 12,4 11,8 12,4 22 12 47 25 WSW 1009,5 10 0,0
21.10.2017 00:00:00 12,9 12,4 12,6 31 17 47 25 WSW 1009,0 10 0,6
20.10.2017 23:00:00 13,1 12,7 12,9 28 15 - - W 1008,4 10 2,1
20.10.2017 22:00:00 13,5 13,1 13,3 21 11 29 16 WSW 1007,7 10 1,2
20.10.2017 21:00:00 13,4 13,0 13,0 16 9 32 18 SW 1007,3 4,7 3,8
20.10.2017 20:00:00 13,2 12,5 12,7 21 11 32 18 SW 1007,0 3,7 1,3
20.10.2017 19:00:00 13,1 12,4 12,7 16 9 43 23 SW 1006,4 10 0,0
20.10.2017 18:00:00 13,3 12,5 13,1 26 14 43 23 SSW 1005,5 10 0,4
20.10.2017 17:00:00 12,9 12,5 12,7 29 16 50 27 S 1004,9 10 0,8
20.10.2017 16:00:00 12,8 11,7 12,5 34 18 54 29 S 1004,6 10 2,1
20.10.2017 15:00:00 14,0 11,0 13,9 31 17 54 29 S 1004,8 10 0,0
20.10.2017 14:00:00 14,2 10,8 14,0 28 15 47 25 SSW 1005,1 10 0,0
20.10.2017 13:00:00 15,0 11,4 14,7 26 14 40 21 S 1005,0 10 0,0
20.10.2017 12:00:00 14,9 11,7 15,1 24 13 43 23 SSW 1005,1 10 0,0
20.10.2017 11:00:00 13,2 12,1 12,8 18 10 36 19 SSW 1004,9 10 3,1
20.10.2017 10:00:00 11,9 11,2 12,0 21 11 36 19 SSW 1004,9 10 2,6
20.10.2017 09:00:00 15,4 12,1 14,7 21 11 32 18 SSE 1004,1 10 0,0
20.10.2017 08:00:00 14,9 12,1 14,1 18 10 29 16 SSE 1003,9 10 0,0
20.10.2017 07:00:00 15,0 12,1 14,0 18 10 32 18 S 1004,3 10 0,0
20.10.2017 06:00:00 15,2 12,3 14,3 21 11 32 18 SSE 1004,8 10 0,0
20.10.2017 05:00:00 15,7 12,9 14,8 22 12 32 18 SSE 1004,9 10 0,0
20.10.2017 04:00:00 15,6 13,2 14,7 13 7 25 14 SSE 1005,4 10 0,0
20.10.2017 03:00:00 15,9 13,8 15,3 11 6 22 12 SSE 1006,1 10 0,0
20.10.2017 02:00:00 16,4 13,6 15,9 16 9 25 14 S 1006,6 10 0,0
20.10.2017 01:00:00 16,4 13,5 15,7 16 9 25 14 SSE 1006,2 10 0,0
20.10.2017 00:00:00 15,9 13,2 15,2 15 8 25 14 SSE 1006,6 10 0,0
19.10.2017 23:00:00 15,8 12,9 14,9 16 9 29 16 SSE 1007,0 10 0,0
19.10.2017 22:00:00 15,8 13,0 14,9 16 9 29 16 SE 1007,2 10 0,0
19.10.2017 21:00:00 16,1 13,5 15,4 18 10 29 16 SE 1007,5 10 0,0
19.10.2017 20:00:00 16,7 13,8 16,0 21 11 32 18 SE 1007,8 10 0,0
19.10.2017 19:00:00 17,1 13,9 15,9 16 9 25 14 SE 1007,9 10 0,0
19.10.2017 18:00:00 18,1 14,3 17,1 11 6 18 10 SE 1008,2 10 0,0
19.10.2017 17:00:00 18,4 14,4 17,5 13 7 25 14 SE 1008,2 10 0,0
19.10.2017 16:00:00 18,9 14,9 18,6 15 8 25 14 SE 1008,7 10 0,0
19.10.2017 15:00:00 18,7 14,8 18,9 15 8 22 12 SSE 1009,5 10 0,0
19.10.2017 14:00:00 17,8 14,7 18,0 13 7 22 12 SSE 1010,0 9 0,0
19.10.2017 13:00:00 16,0 14,6 16,1 13 7 22 12 SSE 1010,6 6 0,0
19.10.2017 12:00:00 14,5 14,1 14,7 13 7 18 10 SSE 1011,0 2,7 0,0
19.10.2017 11:00:00 13,2 13,1 13,6 13 7 18 10 SSE 1010,9 1,9 0,0
19.10.2017 10:00:00 12,3 12,3 12,5 11 6 18 10 SE 1010,6 2,0 0,0
19.10.2017 09:00:00 12,1 12,1 11,6 9 5 14 8 SE 1010,8 2,2 0,0
19.10.2017 08:00:00 11,7 11,7 10,8 8 4 11 6 SE 1010,9 2,1 0,0
19.10.2017 07:00:00 11,9 11,8 11,3 9 5 14 8 SSE 1010,9 2,5 0,0
19.10.2017 06:00:00 12,4 12,1 12,0 9 5 14 8 SSE 1011,2 2,7 0,0
19.10.2017 05:00:00 12,3 12,1 11,7 9 5 14 8 SE 1011,3 3,1 0,0
19.10.2017 04:00:00 12,4 12,1 12,0 8 4 14 8 SSE 1011,6 3,6 0,0
19.10.2017 03:00:00 12,3 12,0 12,0 8 4 14 8 SE 1011,8 4,3 0,0
19.10.2017 02:00:00 12,6 12,0 12,3 9 5 18 10 SE 1012,0 4,8 0,0
19.10.2017 01:00:00 12,7 12,0 12,4 11 6 18 10 ESE 1012,0 5 0,0
19.10.2017 00:00:00 12,7 11,6 12,2 11 6 18 10 ESE 1012,1 7 0,0
18.10.2017 23:00:00 12,6 11,1 12,0 15 8 18 10 E 1012,7 10 0,0
18.10.2017 22:00:00 11,9 10,9 11,1 9 5 14 8 E 1012,9 10 0,0
18.10.2017 21:00:00 11,5 10,9 10,9 13 7 18 10 ENE 1012,8 10 0,0
18.10.2017 20:00:00 12,5 11,7 11,7 11 6 14 8 E 1013,0 10 0,0
18.10.2017 19:00:00 12,4 11,2 11,8 11 6 14 8 E 1013,0 10 0,0
18.10.2017 18:00:00 13,3 11,1 12,8 11 6 18 10 ENE 1012,9 10 0,0
18.10.2017 17:00:00 14,4 11,1 14,2 15 8 25 14 ENE 1012,9 10 0,0
18.10.2017 16:00:00 14,9 11,1 15,0 15 8 22 12 ENE 1013,2 10 0,0
18.10.2017 15:00:00 14,9 10,6 15,5 13 7 18 10 ENE 1013,5 10 0,0
18.10.2017 14:00:00 14,4 10,7 14,7 11 6 18 10 E 1014,0 10 0,0
18.10.2017 13:00:00 14,3 11,4 14,7 11 6 18 10 E 1014,5 10 0,0
18.10.2017 12:00:00 13,4 11,5 13,2 5 3 11 6 NE 1014,7 10 0,0
18.10.2017 11:00:00 12,9 11,2 12,6 5 3 11 6 E 1014,9 8 0,0
18.10.2017 10:00:00 11,5 11,3 11,7 2 1 - - - 1015,3 9 -
18.10.2017 09:00:00 10,4 10,3 10,3 4 2 7 4 S 1014,7 6 0,0
18.10.2017 08:00:00 9,8 9,8 9,6 2 1 7 4 - 1014,9 5 0,0
18.10.2017 07:00:00 9,3 9,3 6,1 5 3 7 4 SSE 1015,2 3,0 0,0
18.10.2017 06:00:00 8,5 8,4 7,0 4 2 11 6 S 1015,5 3,0 0,0
18.10.2017 05:00:00 9,8 9,6 8,8 9 5 14 8 S 1015,6 7 0,0
18.10.2017 04:00:00 9,4 9,4 8,3 8 4 18 10 S 1016,1 9 0,0
18.10.2017 03:00:00 9,4 9,3 7,5 8 4 14 8 S 1016,5 7 0,0
18.10.2017 02:00:00 9,2 8,9 7,5 4 2 11 6 - 1016,7 10 0,0
18.10.2017 01:00:00 9,8 9,6 8,8 9 5 14 8 SSW 1017,1 10 0,0
18.10.2017 00:00:00 9,7 9,2 8,8 9 5 14 8 SSW 1017,2 10 0,0
17.10.2017 23:00:00 10,0 9,4 8,8 9 5 14 8 SSW 1017,6 10 0,0
17.10.2017 22:00:00 10,1 9,2 8,9 9 5 14 8 S 1017,4 10 0,0
17.10.2017 21:00:00 10,3 9,2 9,0 8 4 14 8 SSW 1017,4 10 0,0
17.10.2017 20:00:00 11,1 9,2 10,2 11 6 18 10 SSW 1017,5 10 0,0
17.10.2017 19:00:00 12,1 9,5 11,3 15 8 22 12 SW 1017,5 10 0,0
17.10.2017 18:00:00 13,0 9,9 12,4 15 8 32 18 SW 1017,5 10 0,0
17.10.2017 17:00:00 14,0 10,0 13,6 18 10 36 19 SW 1017,9 10 0,0
17.10.2017 16:00:00 14,6 10,1 14,6 22 12 43 23 SW 1018,2 10 0,0
17.10.2017 15:00:00 15,1 9,9 15,3 31 17 50 27 WSW 1018,5 10 0,0
17.10.2017 14:00:00 15,0 10,1 15,1 28 15 43 23 WSW 1019,0 10 0,0
17.10.2017 13:00:00 15,2 10,3 15,1 26 14 40 21 WSW 1019,3 10 0,0
17.10.2017 12:00:00 14,9 10,6 14,8 21 11 36 19 SW 1019,6 10 0,0
17.10.2017 11:00:00 13,9 10,9 13,7 18 10 29 16 SW 1019,3 10 0,0
17.10.2017 10:00:00 12,8 10,9 12,3 21 11 29 16 SW 1019,4 10 0,0
17.10.2017 09:00:00 11,5 10,2 10,8 9 5 25 14 SSW 1019,0 10 0,0
17.10.2017 08:00:00 12,1 10,5 11,2 16 9 25 14 SW 1018,7 10 0,0
17.10.2017 07:00:00 12,8 10,9 11,9 18 10 29 16 SW 1018,5 10 0,0
17.10.2017 06:00:00 13,0 10,9 12,0 16 9 25 14 SW 1018,2 10 0,0
17.10.2017 05:00:00 13,8 11,2 12,9 18 10 29 16 SW 1018,4 10 0,0
17.10.2017 04:00:00 14,3 11,5 13,5 18 10 29 16 SW 1018,2 10 0,0
17.10.2017 03:00:00 15,1 12,6 14,2 18 10 29 16 SW 1018,2 10 0,0
17.10.2017 02:00:00 16,0 13,7 15,3 21 11 32 18 SW 1018,1 10 0,0
17.10.2017 01:00:00 16,6 14,8 16,0 18 10 29 16 SW 1017,9 10 0,0
17.10.2017 00:00:00 17,3 15,2 16,4 16 9 29 16 SSW 1017,8 10 0,0
16.10.2017 23:00:00 18,4 15,5 17,3 16 9 25 14 SW 1017,4 10 0,0
16.10.2017 22:00:00 18,6 16,1 17,8 18 10 29 16 S 1016,9 10 0,0
16.10.2017 21:00:00 19,3 16,6 18,4 18 10 29 16 S 1017,0 10 0,0
16.10.2017 20:00:00 19,5 16,8 18,6 18 10 29 16 S 1017,1 10 0,0
16.10.2017 19:00:00 19,9 17,2 19,0 15 8 29 16 S 1017,1 10 0,0
16.10.2017 18:00:00 21,2 17,5 20,2 18 10 29 16 SSE 1017,1 10 0,0
16.10.2017 17:00:00 22,0 17,6 21,4 18 10 29 16 S 1017,7 10 0,0
16.10.2017 16:00:00 21,9 17,3 21,5 16 9 25 14 S 1018,2 10 0,0
16.10.2017 15:00:00 21,0 16,8 21,7 16 9 22 12 S 1018,7 10 0,0
16.10.2017 14:00:00 20,5 17,1 21,4 13 7 22 12 SSW 1019,2 10 0,0
16.10.2017 13:00:00 20,3 16,7 20,8 15 8 22 12 SW 1019,4 10 0,0
16.10.2017 12:00:00 18,9 16,3 19,1 13 7 25 14 SSW 1019,4 10 0,0
16.10.2017 11:00:00 17,6 15,5 17,6 13 7 22 12 SSW 1019,2 10 0,0
16.10.2017 10:00:00 15,4 14,3 15,0 13 7 22 12 S 1018,9 10 0,0
16.10.2017 09:00:00 13,8 13,3 13,1 11 6 18 10 S 1018,7 5 0,0
16.10.2017 08:00:00 13,2 12,9 12,4 9 5 18 10 S 1018,3 4,4 0,0
16.10.2017 07:00:00 13,5 13,1 12,7 9 5 14 8 S 1018,6 4,5 0,0
16.10.2017 06:00:00 13,2 12,9 12,5 11 6 14 8 S 1018,6 4,3 0,0
16.10.2017 05:00:00 12,6 12,6 11,6 11 6 14 8 S 1018,6 4,8 0,0
16.10.2017 04:00:00 13,0 12,5 12,3 9 5 14 8 S 1018,9 6 0,0
16.10.2017 03:00:00 13,6 12,7 12,7 8 4 18 10 SSW 1019,2 10 0,0
16.10.2017 02:00:00 14,3 13,1 13,3 13 7 22 12 SW 1019,0 10 0,0
16.10.2017 01:00:00 15,6 13,3 14,6 15 8 25 14 SSW 1018,7 10 0,0
16.10.2017 00:00:00 15,7 13,2 14,1 13 7 25 14 SSW 1018,7 10 0,0
15.10.2017 23:00:00 15,0 13,0 13,7 11 6 18 10 S 1018,7 8 0,0
15.10.2017 22:00:00 15,4 13,6 14,4 11 6 18 10 S 1018,5 10 0,0
15.10.2017 21:00:00 16,0 14,0 15,0 11 6 18 10 S 1018,4 10 0,0
15.10.2017 20:00:00 16,7 14,3 15,2 11 6 18 10 S 1018,5 10 0,0
15.10.2017 19:00:00 18,0 14,4 16,6 13 7 22 12 S 1018,3 10 0,0

tt = Température de l'air
td = dewpoint
tt 5cm = Température de l'air 5cm
ff = Vitesse du vent
fx = gusts
dd = Direction du vent
ppp = reduced air pressure
vv = visibility
rr = Quantités de précipitations

stations d'obs. à proximité